Overview Statistics Trail Chart Weather Telemetry Raw packets
 

This is the latest recevied weather packets stored in our database for station/object K6CED. If no packets are shown the sender has not sent any weather packets the latest 10 day(s).

<< 29 30 31 32 33 34 35 >>
Time Temp. Humidity Pressure Rain* Wind** Luminosity Snow
1788472650 28.33° C 39% 1014.9 hPa 0 mm - 688 W/m² -
1788472346 28.33° C 38% 1014.8 hPa 0 mm - 696 W/m² -
1788472043 28.89° C 38% 1015.2 hPa 0 mm - 704 W/m² -
1788471740 28.89° C 36% 1015.1 hPa 0 mm - 717 W/m² -
1788471434 28.33° C 35% 1015.2 hPa 0 mm - 727 W/m² -
1788471130 28.33° C 38% 1015.2 hPa 0 mm - 734 W/m² -
1788470826 28.89° C 34% 1015.1 hPa 0 mm - 743 W/m² -
1788470523 29.44° C 33% 1015.2 hPa 0 mm - 755 W/m² -
1788470221 28.33° C 33% 1015.2 hPa 0 mm - 764 W/m² -
1788469918 28.33° C 37% 1015.1 hPa 0 mm - 769 W/m² -
1788469614 28.89° C 37% 1015.3 hPa 0 mm - 774 W/m² -
1788469310 28.89° C 35% 1015 hPa 0 mm - 784 W/m² -
1788469009 28.33° C 38% 1015.1 hPa 0 mm - 789 W/m² -
1788468708 28.89° C 36% 1015.1 hPa 0 mm - 791 W/m² -
1788468404 28.33° C 38% 1015.3 hPa 0 mm - 793 W/m² -
1788468100 28.33° C 37% 1015.3 hPa 0 mm - 787 W/m² -
1788467796 28.33° C 38% 1015.5 hPa 0 mm - 784 W/m² -
1788467491 28.89° C 35% 1015.5 hPa 0 mm - 776 W/m² -
1788467185 28.33° C 38% 1015.4 hPa 0 mm - 763 W/m² -
1788466881 28.33° C 35% 1015.7 hPa 0 mm - 751 W/m² -
1788466575 28.33° C 38% 1015.6 hPa 0 mm - 746 W/m² -
1788466274 28.33° C 35% 1015.6 hPa 0 mm - 740 W/m² -
1788465969 28.33° C 36% 1015.5 hPa 0 mm - 736 W/m² -
1788465665 27.78° C 36% 1015.6 hPa 0 mm - 736 W/m² -
1788465360 28.33° C 37% 1015.7 hPa 0 mm - 737 W/m² -

* Rain latest hour (hover to see other rain measurements)
** Current wind speed in m/s (hover to see current wind gust speed)